Regional Weather Roundup
Issued by NWS Raleigh/Durham, NC

Home | Current Version | Previous Version | Text Only | Print | Product List | Glossary On
Versions: 1 2 3 4 5 6 7 8 9 10 11 12 13 14 15 16 17 18 19 20 21 22 23 24 25 26 27 28 29 30 31 32 33 34 35 36 37 38 39 40 41 42 43 44 45 46 47 48 49 50
000
ASUS42 KRAH 011110
RWRRAH
NORTH CAROLINA WEATHER ROUNDUP
NATIONAL WEATHER SERVICE RALEIGH NC
600 AM EST SUN FEB 01 2015

NOTE: "FAIR" INDICATES FEW OR NO CLOUDS BELOW 12,000 FEET WITH NO
SIGNIFICANT WEATHER AND/OR OBSTRUCTIONS TO VISIBILITY.

NCZ001-053-055-056-065-067-011200-
WESTERN NORTH CAROLINA

CITY           SKY/WX    TMP DP  RH WIND       PRES   REMARKS
ASHEVILLE      CLOUDY    35  21  56 CALM      30.18F
JEFFERSON      NOT AVBL
MORGANTON      CLOUDY    36  25  63 CALM      30.26R
HICKORY        CLOUDY    38  23  55 CALM      30.21R
RUTHERFORDTON  CLOUDY    37  23  57 E3        30.22F
MOUNT AIRY     CLOUDY    35  22  57 NE5       30.24S WCI  31
BOONE          CLOUDY    34  16  48 CALM      30.17R
$$

NCZ021-022-025-041-071-084-088-011200-
CENTRAL NORTH CAROLINA

CITY           SKY/WX    TMP DP  RH WIND       PRES   REMARKS
CHARLOTTE      CLOUDY    41  21  44 SW5       30.25S
GREENSBORO     CLOUDY    37  18  46 CALM      30.23R
WINSTON-SALEM  CLOUDY    36  19  50 SE5       30.23S WCI  32
RALEIGH-DURHAM CLOUDY    38  17  42 CALM      30.25F
FORT BRAGG     CLOUDY    38  21  51 SE3       30.26F
FAYETTEVILLE   CLOUDY    38  24  57 S3        30.28F
BURLINGTON     CLOUDY    34  20  56 CALM      30.25R
LAURINBURG     CLOUDY    38  27  64 W5        30.29S WCI  34
$$

NCZ011-015-027-028-043-044-047-080-103-011200-
NORTHEASTERN NORTH CAROLINA

CITY           SKY/WX    TMP DP  RH WIND       PRES   REMARKS
ROCKY MT-WILSO CLOUDY    36  21  54 CALM      30.28S
GREENVILLE     CLOUDY    36  21  55 SW3       30.31R
WASHINGTON     PTCLDY    32  21  63 CALM      30.30R
ELIZABETH CITY CLEAR     32  20  61 W5        30.29R WCI  27
MANTEO         CLEAR     34  27  75 CALM      30.30R
CAPE HATTERAS  CLEAR     38  31  76 W6        30.31R WCI  33
$$

NCZ078-087-090-091-093-098-101-011200-
SOUTHEASTERN NORTH CAROLINA

CITY           SKY/WX    TMP DP  RH WIND       PRES   REMARKS
LUMBERTON      CLOUDY    39  29  67 SE3       30.29F
GOLDSBORO      CLOUDY    36  27  69 CALM      30.28R
KENANSVILLE    CLOUDY    33  27  79 CALM      30.31S
NEW BERN       PTCLDY    37  24  59 SW7       30.32S WCI  32
CHERRY POINT   MOCLDY    36  25  64 SW8       30.33R WCI  30
BEAUFORT       MOCLDY    38  33  82 W6        30.32S WCI  33
JACKSONVILLE   CLOUDY    37  26  64 W5        30.32R WCI  33
WILMINGTON     CLOUDY    36  32  85 CALM      30.31F
$$



USA.gov is the U.S. government's official web portal to all federal, state and local government web resources and services.